DIAMANT R/B

Satellite information

Favourite Embed

Satellite Type and Status

ROCKET BODYIN ORBIT

Key statistics

Satellite DIAMANT R/B at a glance.

Uptime

21493

Days in orbit

Revolutions

≈ 13.3

Per day

Orbit

LEO

Low Earth Orbit

Inclination

39.5

Latest

Satellite identification and parameters

Extended collection of information and parameters for DIAMANT R/B.

Object identification

Identified? True

Debris? False

Object name: DIAMANT R/B

International designator: 1967-014B

Object number (NORAD): 2682

Object ID (CCSDS): 2682

Country: FRANCE (FR)

Current information (Y/N): Y

RCS size: LARGE

Orbital parameters

Period: 108.082 minutes

Inclination: 39.4602 deg

SMA: 7516.146 km

Apoapsis: 1698.893 km

Periapsis: 577.13 km

RAAN: 339.7391 deg

Eccentricy: 0.07462354

Argument of periapsis: 13.5083 deg

Mean anomaly: 348.4493 deg

Mean motion: 13.32324278 rev/day

Mean motion (dot): 0.00000668 rev/day2

B* drag term: 0.00031012172 1/REarth

Two-line elements (TLE)

Creation date: Dec. 20, 2025, 3:40 a.m.

Reference frame: TEME

Reference center: EARTH

Epoch: Dec. 19, 2025, 3:48 p.m. UTC

TLE line 0: 0 DIAMANT R/B

TLE line 1: 1 02682U 67014B 25353.65859506 .00000668 00000-0 31012-3 0 9998

TLE line 2: 2 02682 39.4602 339.7391 0746235 13.5083 348.4493 13.32324278839938

Live tracking on map

Real-time ground track for satellite DIAMANT R/B.

In-orbit conjunctions

A list of the most updated potential collisions computed for object DIAMANT R/B.

Target Orbit TCA Probability of collision Miss distance Type
COSMOS 1235 LEO 2025-12-05 15:36:27 0.000189255 687.0 (m) PAYLOAD
THOR BURNER 2 R/B SSO 2024-09-14 20:13:25 0.0008199707 460.0 (m) ROCKET BODY

Associated space launch

French geodetic study satellite.

DIAMANT R/B was lifted into orbit during the mission ‘Diamant A | Diademe D-1D’, on board a Diamant A space rocket.

The launch took place on Feb. 15, 1967, 10:06 a.m. from Brigitte.

For more information about the launch, click the button.

Launch to space Diamant A | Diademe D-1D
Diamant A | Diademe D-1D

Agency: N/A

Status: Launch Successful

Launch date: Feb. 15, 1967, 10:06 a.m. UTC

Rocket: Diamant A

Launch pad: Brigitte

Location: Interarmy Special Vehicles Test Centre, French Algeria

...

Latest news about this satellite

There are no fresh news available about this satellite. Check back as we update our databases every day.


Newsletter sign-up

Weekly statistics, charts and insights to help you stay on top of the space industry.